| time (UTC) | temp F | wind direction | speed MPH | gust MPH | rain 1hr in | rain 24hr in | rain mn in | humidity % | barometer mb |
| 20260510193102 | 57 | 9 | 4.0 | 10.0 | 0.00 | 0.43 | 0.07 | 53 | 1029.2 |
| 20260510190343 | 55 | 38 | 3.0 | 10.0 | 0.00 | 0.43 | 0.07 | 53 | 1029.1 |
| 20260510190018 | 55 | 40 | 4.0 | 10.0 | 0.00 | 0.43 | 0.07 | 52 | 1029.0 |
| 20260510183113 | 56 | 285 | 3.0 | 15.0 | 0.00 | 0.43 | 0.07 | 54 | 1028.7 |
| 20260510180323 | 55 | 36 | 3.0 | 10.0 | 0.00 | 0.43 | 0.07 | 54 | 1028.5 |
| 20260510180048 | 56 | 29 | 4.0 | 10.0 | 0.00 | 0.43 | 0.07 | 51 | 1028.6 |
| 20260510173116 | 56 | 350 | 4.0 | 13.0 | 0.00 | 0.43 | 0.07 | 56 | 1028.4 |
| 20260510170331 | 55 | 286 | 5.0 | 9.0 | 0.00 | 0.43 | 0.07 | 58 | 1028.3 |
| 20260510170028 | 55 | 355 | 4.0 | 9.0 | 0.00 | 0.43 | 0.07 | 58 | 1028.3 |
| 20260510163049 | 55 | 326 | 4.0 | 12.0 | 0.00 | 0.43 | 0.07 | 60 | 1028.0 |
| 20260510160323 | 55 | 28 | 3.0 | 8.0 | 0.00 | 0.43 | 0.07 | 59 | 1027.8 |
| 20260510160041 | 54 | 5 | 4.0 | 8.0 | 0.00 | 0.43 | 0.07 | 57 | 1027.8 |
| 20260510153037 | 54 | 287 | 3.0 | 6.0 | 0.00 | 0.43 | 0.07 | 62 | 1027.5 |
| 20260510143028 | 53 | 59 | 4.0 | 9.0 | 0.00 | 0.43 | 0.07 | 67 | 1027.2 |
| 20260510140430 | 52 | 296 | 2.0 | 7.0 | 0.00 | 0.43 | 0.07 | 69 | 1027.0 |
| 20260510140031 | 52 | 284 | 3.0 | 8.0 | 0.00 | 0.43 | 0.07 | 67 | 1027.0 |
| 20260510133024 | 51 | 343 | 3.0 | 9.0 | 0.00 | 0.43 | 0.07 | 69 | 1026.5 |
| 20260510130340 | 50 | 32 | 3.0 | 9.0 | 0.00 | 0.43 | 0.07 | 73 | 1026.2 |
| 20260510130038 | 50 | 25 | 2.0 | 9.0 | 0.00 | 0.43 | 0.07 | 76 | 1026.1 |
| 20260510123011 | 48 | 44 | 5.0 | 10.0 | 0.00 | 0.43 | 0.07 | 82 | 1025.7 |
| 20260510120355 | 46 | 14 | 3.0 | 6.0 | 0.00 | 0.43 | 0.07 | 96 | 1025.1 |
| 20260510120113 | 46 | 22 | 1.0 | 5.0 | 0.00 | 0.43 | 0.07 | 97 | 1025.1 |
| 20260510120031 | 46 | 22 | 1.0 | 5.0 | 0.00 | 0.43 | 0.07 | 97 | 1025.1 |
| 20260510113013 | 43 | 16 | 0.0 | 2.0 | 0.00 | 0.43 | 0.07 | 99 | 1024.5 |
| 20260510110328 | 43 | 329 | 0.0 | 2.0 | 0.00 | 0.43 | 0.07 | 99 | 1024.0 |
| 20260510110031 | 43 | 329 | 0.0 | 2.0 | 0.00 | 0.43 | 0.07 | 99 | 1023.9 |
| 20260510103027 | 42 | 327 | 0.0 | 1.0 | 0.00 | 0.43 | 0.07 | 98 | 1023.4 |
| 20260510100408 | 42 | 327 | 0.0 | 0.0 | 0.00 | 0.43 | 0.07 | 98 | 1023.0 |
| 20260510100042 | 42 | 327 | 0.0 | 0.0 | 0.00 | 0.43 | 0.07 | 98 | 1023.0 |
| 20260510093041 | 42 | 327 | 0.0 | 1.0 | 0.00 | 0.43 | 0.07 | 98 | 1022.3 |
| 20260510090401 | 42 | 327 | 0.0 | 0.0 | 0.00 | 0.43 | 0.07 | 97 | 1021.9 |
| 20260510090014 | 42 | 327 | 0.0 | 0.0 | 0.00 | 0.43 | 0.07 | 97 | 1021.9 |
| 20260510083009 | 43 | 327 | 0.0 | 0.0 | 0.00 | 0.43 | 0.07 | 97 | 1021.4 |
| 20260510080331 | 44 | 327 | 0.0 | 1.0 | 0.00 | 0.43 | 0.07 | 97 | 1021.1 |
| 20260510080130 | 45 | 327 | 0.0 | 1.0 | 0.00 | 0.43 | 0.07 | 96 | 1021.0 |
| 20260510073024 | 46 | 327 | 0.0 | 0.0 | 0.01 | 0.43 | 0.07 | 96 | 1020.5 |
| 20260510070320 | 46 | 327 | 0.0 | 0.0 | 0.01 | 0.43 | 0.07 | 96 | 1020.3 |
| 20260510070032 | 47 | 327 | 0.0 | 0.0 | 0.01 | 0.43 | 0.07 | 96 | 1020.2 |
| 20260510063009 | 48 | 327 | 1.0 | 2.0 | 0.00 | 0.42 | 0.06 | 95 | 1019.7 |
| 20260510060348 | 50 | 326 | 2.0 | 3.0 | 0.00 | 0.42 | 0.06 | 95 | 1019.7 |
| 20260510060023 | 50 | 24 | 1.0 | 2.0 | 0.00 | 0.42 | 0.06 | 95 | 1019.8 |
| 20260510053037 | 52 | 60 | 1.0 | 5.0 | 0.05 | 0.42 | 0.06 | 94 | 1019.5 |
| 20260510050311 | 54 | 328 | 1.0 | 8.0 | 0.06 | 0.42 | 0.06 | 93 | 1019.1 |
| 20260510050028 | 54 | 324 | 2.0 | 12.0 | 0.06 | 0.42 | 0.06 | 93 | 1019.1 |
| 20260510043022 | 56 | 312 | 1.0 | 5.0 | 0.01 | 0.37 | 0.01 | 91 | 1018.0 |
| 20260510040402 | 55 | 314 | 4.0 | 6.0 | 0.00 | 0.36 | 0.00 | 93 | 1017.6 |
| 20260510040028 | 55 | 314 | 4.0 | 6.0 | 0.00 | 0.36 | 0.00 | 93 | 1017.7 |
| 20260510033109 | 54 | 259 | 3.0 | 6.0 | 0.00 | 0.36 | 0.36 | 95 | 1016.9 |
| 20260510030347 | 54 | 180 | 1.0 | 2.0 | 0.00 | 0.36 | 0.36 | 92 | 1016.6 |
| 20260510030024 | 54 | 180 | 0.0 | 2.0 | 0.00 | 0.36 | 0.36 | 92 | 1016.5 |
| 20260510023110 | 55 | 212 | 2.0 | 5.0 | 0.00 | 0.36 | 0.36 | 91 | 1016.7 |
| 20260510020323 | 55 | 244 | 2.0 | 6.0 | 0.00 | 0.36 | 0.36 | 93 | 1016.7 |
| 20260510020040 | 55 | 182 | 3.0 | 6.0 | 0.00 | 0.36 | 0.36 | 93 | 1016.6 |
| 20260510013017 | 55 | 255 | 3.0 | 5.0 | 0.00 | 0.37 | 0.36 | 93 | 1016.1 |
| 20260510010354 | 55 | 273 | 3.0 | 7.0 | 0.00 | 0.37 | 0.36 | 94 | 1015.9 |
| 20260510010030 | 55 | 228 | 2.0 | 7.0 | 0.00 | 0.37 | 0.36 | 94 | 1015.9 |
| 20260510003012 | 55 | 233 | 1.0 | 4.0 | 0.00 | 0.40 | 0.36 | 95 | 1015.7 |
| 20260510000333 | 55 | 261 | 1.0 | 8.0 | 0.03 | 0.40 | 0.36 | 94 | 1015.5 |
| 20260510000023 | 55 | 275 | 1.0 | 8.0 | 0.04 | 0.40 | 0.36 | 94 | 1015.5 |
| 20260509233045 | 56 | 255 | 5.0 | 10.0 | 0.36 | 0.40 | 0.36 | 95 | 1015.2 |
| 20260509230341 | 55 | 279 | 6.0 | 23.0 | 0.33 | 0.37 | 0.33 | 93 | 1016.1 |
| 20260509230032 | 55 | 245 | 5.0 | 23.0 | 0.32 | 0.36 | 0.32 | 93 | 1016.1 |
| 20260509223038 | 68 | 309 | 7.0 | 13.0 | 0.00 | 0.04 | 0.00 | 61 | 1014.7 |
| 20260509220355 | 68 | 211 | 9.0 | 16.0 | 0.00 | 0.04 | 0.00 | 59 | 1012.7 |
| 20260509220030 | 68 | 255 | 8.0 | 14.0 | 0.00 | 0.04 | 0.00 | 59 | 1012.7 |
| 20260509213105 | 70 | 198 | 7.0 | 19.0 | 0.00 | 0.04 | 0.00 | 53 | 1012.4 |
| 20260509210402 | 70 | 265 | 7.0 | 12.0 | 0.00 | 0.04 | 0.00 | 56 | 1012.8 |
| 20260509210104 | 70 | 279 | 8.0 | 18.0 | 0.00 | 0.04 | 0.00 | 56 | 1012.9 |
| 20260509210021 | 70 | 279 | 8.0 | 18.0 | 0.00 | 0.04 | 0.00 | 56 | 1012.9 |
| 20260509203039 | 70 | 156 | 5.0 | 14.0 | 0.00 | 0.04 | 0.00 | 59 | 1013.4 |
| 20260509200313 | 70 | 254 | 9.0 | 17.0 | 0.00 | 0.04 | 0.00 | 57 | 1013.9 |
| 20260509200038 | 70 | 259 | 10.0 | 17.0 | 0.00 | 0.04 | 0.00 | 57 | 1013.9 |